This is the latest recevied weather packets stored in our database for station/object VA3VWX-13. If no packets are shown the sender has not sent any weather packets the latest 1 day(s).
| Time | Temp. | Humidity | Pressure | Rain* | Wind** | Luminosity | Snow |
|---|---|---|---|---|---|---|---|
| 1778068713 | 6.11° C | 94% | 1009.5 hPa | 1.02 mm | - | - | - |
| 1778068420 | 6.11° C | 94% | 1009.5 hPa | 1.02 mm | - | - | - |
| 1778067512 | 6.11° C | 94% | 1009.2 hPa | 1.02 mm | - | - | - |
| 1778066321 | 6.11° C | 94% | 1009 hPa | 1.02 mm | - | - | - |
| 1778065718 | 6.11° C | 94% | 1008.6 hPa | 2.03 mm | - | - | - |
| 1778065436 | 6.11° C | 94% | 1008.7 hPa | 2.03 mm | - | - | - |
| 1778065126 | 6.11° C | 94% | 1008.8 hPa | 1.02 mm | - | - | - |
| 1778064511 | 6.11° C | 93% | 1008.9 hPa | 2.03 mm | - | - | - |
| 1778063622 | 6.11° C | 93% | 1008.8 hPa | 2.03 mm | - | - | - |
| 1778063309 | 6.11° C | 93% | 1008.9 hPa | 3.05 mm | - | - | - |
| 1778063006 | 6.11° C | 93% | 1008.6 hPa | 3.05 mm | - | - | - |
| 1778062714 | 6.11° C | 93% | 1008.4 hPa | 3.05 mm | - | - | - |
| 1778062421 | 6.11° C | 93% | 1008.4 hPa | 3.05 mm | - | - | - |
| 1778061211 | 6.11° C | 93% | 1008.7 hPa | 1.02 mm | - | - | - |
| 1778060608 | 6.11° C | 93% | 1008.8 hPa | 2.03 mm | - | - | - |
| 1778060316 | 6.11° C | 93% | 1008.7 hPa | 2.03 mm | - | - | - |
| 1778060023 | 6.11° C | 93% | 1008.9 hPa | 2.03 mm | - | - | - |
| 1778059417 | 6.11° C | 93% | 1008.9 hPa | 1.02 mm | - | - | - |
| 1778058831 | 6.11° C | 93% | 1008.9 hPa | 1.02 mm | - | - | - |
| 1778058509 | 6.67° C | 93% | 1009 hPa | 1.02 mm | - | - | - |
| 1778058226 | 6.67° C | 93% | 1009.1 hPa | 1.02 mm | - | - | - |
| 1778057915 | 6.67° C | 93% | 1009 hPa | 1.02 mm | - | - | - |
| 1778057322 | 6.67° C | 93% | 1009.1 hPa | 0 mm | - | - | - |
| 1778057009 | 6.67° C | 93% | 1009.3 hPa | 0 mm | - | - | - |
| 1778056707 | 6.67° C | 93% | 1009.3 hPa | 0 mm | - | - | - |
* Rain latest hour (hover to see other rain measurements)
** Current wind speed in m/s (hover to see current wind gust speed)